�������l�o���
Date,Time,MP-1(��Sv/h),MP-2(��Sv/h),MP-3(��Sv/h),MP-4(��Sv/h),MP-5(��Sv/h),MP-6(��Sv/h),MP-7(��Sv/h),MP-8(��Sv/h),����,����(m/s),���J
2020/05/31,00:00,0.705,1.013,0.643,1.221,0.880,0.403,0.695,0.651,��쐼,4.5,��
2020/05/31,00:10,0.703,1.015,0.643,1.222,0.880,0.404,0.694,0.651,��,4.1,��
2020/05/31,00:20,0.705,1.014,0.642,1.221,0.882,0.404,0.693,0.651,��쐼,4.5,��
2020/05/31,00:30,0.705,1.014,0.640,1.220,0.880,0.402,0.693,0.651,��쐼,4.4,��
2020/05/31,00:40,0.704,1.014,0.641,1.221,0.879,0.403,0.694,0.651,��쐼,4.2,��
2020/05/31,00:50,0.704,1.014,0.641,1.220,0.879,0.404,0.694,0.651,��쐼,4.7,��
2020/05/31,01:00,0.702,1.014,0.642,1.219,0.880,0.405,0.693,0.651,��쐼,4.8,��
2020/05/31,01:10,0.704,1.014,0.643,1.220,0.879,0.404,0.694,0.651,��쐼,5.3,��
2020/05/31,01:20,0.704,1.013,0.641,1.221,0.877,0.403,0.694,0.651,��쐼,4.5,��
2020/05/31,01:30,0.702,1.011,0.641,1.223,0.877,0.403,0.693,0.651,��,3.9,��
2020/05/31,01:40,0.703,1.015,0.642,1.218,0.879,0.403,0.694,0.651,��쐼,4.4,��
2020/05/31,01:50,0.705,1.015,0.644,1.218,0.879,0.404,0.694,0.650,��쐼,4.6,��
2020/05/31,02:00,0.703,1.014,0.641,1.221,0.879,0.404,0.694,0.650,��쐼,4.2,��
2020/05/31,02:10,0.704,1.012,0.641,1.222,0.878,0.403,0.694,0.650,��쐼,4.1,��
2020/05/31,02:20,0.703,1.014,0.641,1.220,0.877,0.404,0.695,0.651,��,4.2,��
2020/05/31,02:30,0.704,1.014,0.641,1.218,0.878,0.403,0.694,0.650,��,4.5,��
2020/05/31,02:40,0.705,1.013,0.642,1.221,0.875,0.403,0.694,0.651,��,3.5,��
2020/05/31,02:50,0.701,1.013,0.642,1.221,0.876,0.404,0.692,0.651,��,4.1,��
2020/05/31,03:00,0.702,1.012,0.641,1.219,0.876,0.403,0.694,0.651,��,3.6,��
2020/05/31,03:10,0.702,1.013,0.642,1.220,0.878,0.403,0.694,0.651,��,3.9,��
2020/05/31,03:20,0.703,1.013,0.642,1.219,0.877,0.403,0.693,0.649,��,3.1,��
2020/05/31,03:30,0.703,1.012,0.643,1.221,0.877,0.404,0.694,0.649,��쐼,3.3,��
2020/05/31,03:40,0.702,1.012,0.640,1.219,0.878,0.402,0.693,0.650,��쐼,3.2,��
2020/05/31,03:50,0.702,1.011,0.641,1.220,0.879,0.403,0.694,0.649,��,2.5,��
2020/05/31,04:00,0.701,1.015,0.642,1.220,0.878,0.401,0.694,0.649,��쐼,2.6,��
2020/05/31,04:10,0.702,1.013,0.641,1.221,0.876,0.403,0.693,0.650,��쐼,2.5,��
2020/05/31,04:20,0.703,1.012,0.641,1.220,0.877,0.402,0.693,0.650,��쐼,1.7,��
2020/05/31,04:30,0.700,1.011,0.641,1.220,0.876,0.402,0.695,0.649,��쐼,1.5,��
2020/05/31,04:40,0.702,1.011,0.643,1.219,0.878,0.402,0.694,0.650,��쐼,0.9,��
2020/05/31,04:50,0.701,1.012,0.640,1.219,0.877,0.403,0.693,0.651,��쐼,1.5,��
2020/05/31,05:00,0.703,1.013,0.643,1.221,0.877,0.403,0.693,0.652,��쐼,1.5,��
2020/05/31,05:10,0.702,1.014,0.642,1.219,0.879,0.402,0.695,0.650,��쐼,1.9,��
2020/05/31,05:20,0.703,1.014,0.642,1.219,0.878,0.402,0.692,0.650,-,CALM,��
2020/05/31,05:30,0.703,1.014,0.640,1.219,0.878,0.403,0.693,0.651,���쓌,0.8,��
2020/05/31,05:40,0.703,1.015,0.642,1.221,0.879,0.403,0.694,0.651,���k��,1.2,��
2020/05/31,05:50,0.703,1.014,0.641,1.223,0.878,0.403,0.694,0.651,���k��,1.5,��
2020/05/31,06:00,0.702,1.014,0.643,1.222,0.881,0.402,0.694,0.651,�k��,1.7,��
2020/05/31,06:10,0.704,1.016,0.643,1.222,0.879,0.402,0.695,0.652,�k��,1.7,��
2020/05/31,06:20,0.702,1.015,0.643,1.220,0.878,0.404,0.693,0.650,�k�k��,1.7,��
2020/05/31,06:30,0.704,1.016,0.643,1.223,0.877,0.402,0.694,0.652,�k,1.7,��
2020/05/31,06:40,0.705,1.015,0.645,1.222,0.879,0.402,0.695,0.651,�k,1.7,��
2020/05/31,06:50,0.703,1.016,0.643,1.222,0.879,0.403,0.696,0.651,�k�k��,1.5,��
2020/05/31,07:00,0.704,1.015,0.642,1.223,0.879,0.402,0.694,0.651,�k��,1.2,��
2020/05/31,07:10,0.702,1.014,0.644,1.224,0.880,0.403,0.694,0.654,�k�k��,1.2,��
2020/05/31,07:20,0.702,1.014,0.645,1.222,0.880,0.401,0.697,0.653,-,CALM,��
2020/05/31,07:30,0.702,1.013,0.644,1.221,0.877,0.400,0.695,0.652,�k�k��,0.6,��
2020/05/31,07:40,0.703,1.013,0.641,1.221,0.879,0.402,0.695,0.652,�k��,0.9,��
2020/05/31,07:50,0.702,1.011,0.643,1.222,0.880,0.401,0.692,0.650,�k��,1.2,��
2020/05/31,08:00,0.702,1.011,0.642,1.221,0.879,0.402,0.692,0.652,�k�k��,0.9,��
2020/05/31,08:10,0.702,1.010,0.643,1.219,0.880,0.401,0.692,0.649,-,CALM,��
2020/05/31,08:20,0.701,1.012,0.642,1.221,0.877,0.399,0.694,0.649,-,CALM,��
2020/05/31,08:30,0.701,1.012,0.642,1.220,0.879,0.400,0.691,0.651,��,0.6,��
2020/05/31,08:40,0.699,1.012,0.643,1.221,0.879,0.400,0.692,0.650,��,0.9,��
2020/05/31,08:50,0.700,1.012,0.642,1.222,0.881,0.401,0.694,0.649,�쓌,2.3,��
2020/05/31,09:00,0.701,1.013,0.642,1.224,0.880,0.400,0.694,0.648,��쓌,3.1,��
2020/05/31,09:10,0.702,1.013,0.640,1.222,0.879,0.401,0.693,0.650,��쓌,2.6,��
2020/05/31,09:20,0.701,1.013,0.644,1.223,0.881,0.401,0.693,0.650,��,3.6,��
2020/05/31,09:30,0.704,1.014,0.642,1.222,0.881,0.402,0.692,0.649,��쓌,5.1,��
2020/05/31,09:40,0.700,1.013,0.641,1.223,0.878,0.400,0.693,0.650,��쓌,6.3,��
2020/05/31,09:50,0.703,1.014,0.640,1.222,0.877,0.402,0.692,0.648,��,7.0,��
2020/05/31,10:00,0.702,1.013,0.639,1.222,0.878,0.402,0.695,0.650,��,7.3,��
2020/05/31,10:10,0.701,1.015,0.640,1.224,0.878,0.402,0.696,0.650,��,9.2,��
2020/05/31,10:20,0.703,1.015,0.642,1.222,0.878,0.402,0.695,0.651,��,9.4,��
2020/05/31,10:30,0.703,1.015,0.639,1.223,0.880,0.402,0.694,0.650,��,9.8,��
2020/05/31,10:40,0.703,1.014,0.642,1.220,0.880,0.401,0.692,0.649,��쓌,11.1,��
2020/05/31,10:50,0.704,1.015,0.642,1.224,0.881,0.403,0.695,0.649,��쓌,12.5,��
2020/05/31,11:00,0.701,1.018,0.642,1.222,0.882,0.402,0.694,0.650,��쓌,12.2,��
2020/05/31,11:10,0.702,1.015,0.640,1.222,0.880,0.403,0.694,0.651,��,11.9,��
2020/05/31,11:20,0.702,1.015,0.642,1.220,0.881,0.402,0.694,0.649,��,12.0,��
2020/05/31,11:30,0.704,1.017,0.643,1.219,0.881,0.401,0.694,0.650,��쓌,13.3,��
2020/05/31,11:40,0.705,1.016,0.641,1.220,0.879,0.401,0.693,0.650,��쓌,13.6,��
2020/05/31,11:50,0.701,1.017,0.643,1.221,0.882,0.402,0.694,0.650,��쓌,12.4,��
2020/05/31,12:00,0.703,1.018,0.644,1.223,0.882,0.403,0.695,0.650,��쓌,13.8,��
2020/05/31,12:10,0.702,1.015,0.643,1.220,0.881,0.402,0.694,0.650,��쓌,13.8,��
2020/05/31,12:20,0.703,1.017,0.642,1.224,0.882,0.403,0.695,0.649,��쓌,15.2,��
2020/05/31,12:30,0.703,1.017,0.642,1.223,0.881,0.404,0.693,0.653,��쓌,14.9,��
2020/05/31,12:40,0.706,1.019,0.644,1.222,0.881,0.403,0.694,0.651,��,13.0,��
2020/05/31,12:50,0.705,1.019,0.644,1.225,0.883,0.403,0.694,0.651,��쓌,14.9,��
2020/05/31,13:00,0.705,1.018,0.643,1.223,0.883,0.403,0.695,0.651,��,12.4,��
2020/05/31,13:10,0.703,1.019,0.642,1.221,0.883,0.405,0.695,0.652,��,9.4,��
2020/05/31,13:20,0.703,1.019,0.643,1.222,0.883,0.404,0.696,0.651,��쓌,12.8,��
2020/05/31,13:30,0.704,1.021,0.641,1.222,0.883,0.404,0.694,0.650,��,12.7,��
2020/05/31,13:40,0.705,1.021,0.645,1.222,0.883,0.403,0.694,0.650,��,12.1,��
2020/05/31,13:50,0.704,1.017,0.643,1.223,0.884,0.405,0.696,0.651,��,11.3,��
2020/05/31,14:00,0.706,1.020,0.643,1.226,0.885,0.402,0.695,0.651,��,10.5,��
2020/05/31,14:10,0.704,1.019,0.644,1.223,0.880,0.404,0.695,0.651,��쓌,11.3,��
2020/05/31,14:20,0.707,1.018,0.643,1.223,0.884,0.404,0.694,0.650,��,9.9,��
2020/05/31,14:30,0.704,1.018,0.643,1.224,0.885,0.404,0.695,0.650,��쓌,9.6,��
2020/05/31,14:40,0.705,1.019,0.643,1.224,0.883,0.404,0.693,0.652,��,9.0,��
2020/05/31,14:50,0.703,1.020,0.643,1.222,0.882,0.404,0.694,0.650,��,11.6,��
2020/05/31,15:00,0.705,1.020,0.644,1.223,0.884,0.403,0.695,0.652,��,11.4,��
2020/05/31,15:10,0.705,1.020,0.643,1.222,0.883,0.402,0.694,0.652,��쓌,10.2,��
2020/05/31,15:20,0.703,1.021,0.643,1.225,0.884,0.405,0.693,0.651,��,10.8,��
2020/05/31,15:30,0.706,1.021,0.644,1.221,0.884,0.404,0.694,0.651,��,10.9,��
2020/05/31,15:40,0.704,1.019,0.645,1.224,0.883,0.404,0.693,0.651,��쓌,10.5,��
2020/05/31,15:50,0.704,1.020,0.642,1.223,0.884,0.404,0.694,0.651,��,9.8,��
2020/05/31,16:00,0.703,1.018,0.644,1.227,0.884,0.404,0.693,0.650,��,8.9,��
2020/05/31,16:10,0.704,1.019,0.643,1.227,0.882,0.404,0.694,0.651,��,9.4,��
2020/05/31,16:20,0.707,1.019,0.641,1.228,0.884,0.404,0.695,0.651,��,9.5,��
2020/05/31,16:30,0.704,1.020,0.643,1.224,0.885,0.404,0.694,0.650,��,9.4,��
2020/05/31,16:40,0.706,1.018,0.643,1.226,0.884,0.404,0.693,0.651,��,10.3,��
2020/05/31,16:50,0.706,1.019,0.643,1.228,0.884,0.404,0.694,0.652,��,9.9,��
2020/05/31,17:00,0.704,1.020,0.644,1.227,0.883,0.405,0.695,0.652,��,9.2,��
2020/05/31,17:10,0.706,1.020,0.644,1.230,0.882,0.403,0.695,0.652,��,9.9,��
2020/05/31,17:20,0.704,1.020,0.645,1.229,0.885,0.403,0.694,0.651,��,9.2,��
2020/05/31,17:30,0.707,1.020,0.643,1.230,0.882,0.403,0.695,0.651,��,8.7,��
2020/05/31,17:40,0.703,1.018,0.645,1.229,0.883,0.404,0.696,0.651,��,8.0,��
2020/05/31,17:50,0.705,1.021,0.645,1.229,0.884,0.403,0.695,0.652,��,8.3,��
2020/05/31,18:00,0.704,1.022,0.646,1.227,0.882,0.402,0.696,0.653,��,9.1,��
2020/05/31,18:10,0.704,1.022,0.643,1.227,0.883,0.402,0.694,0.652,��,9.7,��
2020/05/31,18:20,0.703,1.022,0.643,1.229,0.881,0.404,0.695,0.653,��,10.8,��
2020/05/31,18:30,0.705,1.020,0.646,1.229,0.883,0.405,0.692,0.653,��,7.3,��
2020/05/31,18:40,0.704,1.021,0.643,1.229,0.883,0.404,0.695,0.653,��,8.4,��
2020/05/31,18:50,0.704,1.017,0.643,1.227,0.884,0.403,0.695,0.651,��,8.0,��
2020/05/31,19:00,0.703,1.020,0.643,1.229,0.883,0.404,0.694,0.652,��,9.9,��
2020/05/31,19:10,0.705,1.019,0.644,1.229,0.883,0.404,0.695,0.654,��,8.3,��
2020/05/31,19:20,0.704,1.019,0.643,1.228,0.883,0.403,0.695,0.652,��,7.8,��
2020/05/31,19:30,0.705,1.020,0.644,1.229,0.883,0.404,0.694,0.652,��,8.2,��
2020/05/31,19:40,0.704,1.016,0.644,1.227,0.882,0.404,0.696,0.653,��,8.5,��
2020/05/31,19:50,0.704,1.021,0.645,1.228,0.881,0.405,0.694,0.653,��,7.3,��
2020/05/31,20:00,0.706,1.020,0.645,1.228,0.884,0.406,0.695,0.653,��,7.1,��
2020/05/31,20:10,0.703,1.019,0.647,1.231,0.885,0.403,0.697,0.652,��,8.1,��
2020/05/31,20:20,0.703,1.019,0.646,1.229,0.882,0.404,0.695,0.653,��,7.1,��
2020/05/31,20:30,0.705,1.019,0.646,1.230,0.884,0.405,0.694,0.652,��,9.0,��
2020/05/31,20:40,0.704,1.020,0.645,1.228,0.883,0.406,0.695,0.653,��,9.0,��
2020/05/31,20:50,0.705,1.019,0.647,1.230,0.882,0.403,0.695,0.654,��,8.5,��
2020/05/31,21:00,0.704,1.020,0.646,1.228,0.885,0.403,0.696,0.653,��,7.5,��
2020/05/31,21:10,0.705,1.022,0.646,1.227,0.882,0.403,0.695,0.653,��,8.7,��
2020/05/31,21:20,0.703,1.021,0.646,1.229,0.885,0.404,0.695,0.653,��,8.3,��
2020/05/31,21:30,0.705,1.020,0.645,1.229,0.886,0.404,0.697,0.652,��,8.1,��
2020/05/31,21:40,0.704,1.022,0.646,1.227,0.886,0.405,0.696,0.654,��,7.0,��
2020/05/31,21:50,0.706,1.021,0.644,1.229,0.882,0.404,0.694,0.653,��,6.6,��
2020/05/31,22:00,0.704,1.023,0.643,1.228,0.883,0.402,0.697,0.652,��쐼,6.5,��
2020/05/31,22:10,0.707,1.020,0.645,1.229,0.887,0.405,0.697,0.653,��,6.5,��
2020/05/31,22:20,0.707,1.022,0.646,1.227,0.888,0.404,0.695,0.653,��,6.7,��
2020/05/31,22:30,0.705,1.022,0.645,1.230,0.886,0.406,0.698,0.654,��,6.7,��
2020/05/31,22:40,0.708,1.022,0.644,1.229,0.887,0.406,0.695,0.654,��,6.8,��
2020/05/31,22:50,0.706,1.020,0.645,1.228,0.884,0.405,0.696,0.653,��,5.9,��
2020/05/31,23:00,0.706,1.021,0.645,1.230,0.886,0.404,0.694,0.654,��쐼,6.7,��
2020/05/31,23:10,0.706,1.021,0.646,1.227,0.886,0.406,0.698,0.654,��쐼,7.2,��
2020/05/31,23:20,0.707,1.022,0.645,1.228,0.884,0.406,0.696,0.653,��쐼,6.9,��
2020/05/31,23:30,0.707,1.021,0.646,1.230,0.885,0.405,0.696,0.654,��쐼,5.9,��
2020/05/31,23:40,0.706,1.022,0.647,1.231,0.884,0.406,0.698,0.652,��쐼,6.4,��
2020/05/31,23:50,0.706,1.018,0.646,1.226,0.885,0.405,0.696,0.654,��쐼,6.3,��
